Flag for Brazil Weather past 2 weeks in Rio de Janeiro, Rio de Janeiro, Brazil

Now
73 °F

Broken clouds.


Feels Like: 72 °F
Forecast: 67 / 74 °F
Wind: 10 mph from Southeast

Location: Rio De Janeiro Airport

Current Time: Jul 2, 2015 at 4:04:19 PM

Latest Report: Jul 2, 2015 at 3:00 PM


Visibility: 6 mi

Pressure: 30.04 "Hg

Humidity: 89%

Dew point: 70 °F

Location of Rio de JaneiroLocation

Historic Weather in Rio de Janeiro — Graph

°F

Rio de Janeiro temperature yesterday

Maximum temperature yesterday: 82 °F (at 10:00 AM)
Minimum temperature yesterday: 70 °F (at 5:00 AM)
Average temperature yesterday: 75 °F

Past Weeks' High & Low Weather Summary

 TemperatureHumidityPressure
High84 °F (Jun 18, 1:00 PM)100% (Jun 17, 9:00 PM)30.48 "Hg (Jun 17, 9:00 PM)
Low63 °F (Jun 20, 6:00 AM)55% (Jul 1, 10:00 AM)29.89 "Hg (Jun 18, 2:00 PM)
Average71 °F80%30.21 "Hg
* Reported Jun 17 3:00 PM — Jul 2 3:00 PM, Rio de Janeiro, Weather by CustomWeather, © 2015

Note: Actual official high and low records may vary slightly from our data, if they occured in-between our weather recording intervals... More about our weather records

Advertising

Rio de Janeiro weather history for previous 24 hours

 ConditionsComfort  
Time TempWeatherWind HumidityBarometerVisibility
3:00 PM
Thu, Jul 2
73 °FBroken clouds.10 mph89%30.04 "Hg6 mi
2:00 PM75 °FPartly sunny.9 mph78%30.07 "HgN/A
1:00 PM73 °FPartly sunny.10 mph83%30.07 "HgN/A
12:00 PM75 °FScattered clouds.12 mph83%30.12 "Hg6 mi
11:00 AM73 °FBroken clouds.2 mph83%30.12 "Hg5 mi
10:00 AM72 °FBroken clouds.3 mph88%30.15 "Hg5 mi
9:00 AM70 °FBroken clouds.6 mph94%30.15 "Hg4 mi
8:00 AM70 °FPartly sunny.7 mph94%30.12 "HgN/A
7:00 AM70 °FPartly sunny.3 mph88%30.09 "HgN/A
6:00 AM68 °FPartly sunny.3 mph94%30.09 "HgN/A
5:00 AM70 °FPartly cloudy.3 mph94%30.09 "Hg4 mi
4:00 AM70 °FPartly cloudy.3 mph88%30.09 "Hg4 mi
3:00 AM70 °FPassing clouds.3 mph94%30.09 "HgN/A
2:00 AM72 °FPassing clouds.3 mph88%30.09 "HgN/A
1:00 AM72 °FPassing clouds.3 mph83%30.09 "HgN/A
12:00 AM72 °FPassing clouds.6 mph73%30.12 "HgN/A
11:00 PM
Wed, Jul 1
72 °FPassing clouds.3 mph83%30.12 "HgN/A
10:00 PM72 °FPassing clouds.6 mph78%30.12 "HgN/A
9:00 PM73 °FLight rain. Passing clouds.5 mph74%30.09 "HgN/A
8:00 PM73 °FClear.6 mph69%30.09 "Hg10 mi
7:00 PM73 °FPassing clouds.9 mph74%30.07 "HgN/A
6:00 PM73 °FPassing clouds.12 mph74%30.07 "HgN/A
5:00 PM75 °FPassing clouds.21 mph65%30.04 "HgN/A
4:00 PM77 °FPartly sunny.21 mph57%30.04 "HgN/A
Weather by CustomWeather, © 2015

See weather overviewHow to use our weather pages